GFSGBSN_925_thetae_333.txt.gz
Theta_e
326 326 325 324 324 324 324 323 323 323 321 318 314 313 313 314 314 315 315 315 315 314 314 313 313 313 316 320 318 316 314 315 316 319 319 321 321 321 319 319 320 322 322 320 320 318 318
326 327 326 325 325 325 324 323 323 323 323 322 320 317 311 310 312 314 314 314 315 314 314 313 313 313 318 318 316 316 315 316 317 318 318 319 319 320 318 318 320 320 318 317 317 317 317
328 327 327 328 327 327 326 326 324 323 323 323 322 320 316 309 308 312 314 314 314 314 313 313 313 314 316 317 315 315 315 316 316 317 318 316 317 320 319 319 318 318 318 318 319 319 320
332 329 330 330 329 328 328 329 329 326 323 322 322 322 318 312 308 309 313 314 314 314 313 313 313 316 316 314 315 314 316 317 316 316 316 316 317 319 320 318 318 319 320 324 321 319 319
328 329 329 330 330 330 330 330 330 329 327 323 322 321 321 315 311 308 311 315 314 313 313 313 316 316 316 313 315 315 316 317 317 316 316 316 318 319 319 322 323 321 322 320 319 318 319
322 323 327 327 328 330 331 331 330 330 329 327 322 321 321 318 314 311 310 315 313 313 314 316 315 316 316 316 315 315 315 316 316 317 319 319 320 322 320 321 323 322 321 319 318 318 317
320 321 321 324 326 326 327 327 326 326 326 328 325 321 321 320 316 312 314 318 317 317 315 317 316 316 314 314 313 315 315 315 316 316 318 320 320 322 322 319 317 316 316 317 318 317 316
314 317 320 320 321 323 326 326 325 324 325 326 326 322 320 320 318 312 317 318 317 316 320 318 316 314 314 314 315 315 314 316 316 317 317 318 319 320 317 317 317 318 318 318 318 316 315
311 313 314 317 319 320 321 325 325 325 324 324 325 324 320 320 313 317 317 318 316 317 320 319 318 318 315 314 315 316 315 316 316 316 317 317 320 317 317 318 319 319 318 317 317 317 318
310 310 311 312 314 317 320 320 324 325 324 324 323 324 320 319 317 317 319 315 315 316 320 319 316 317 315 315 315 314 315 316 316 316 316 317 317 317 317 319 318 319 316 315 317 318 322
308 310 309 310 311 312 313 317 319 321 324 324 323 324 321 319 317 318 316 316 315 314 318 316 316 313 315 315 315 314 313 315 316 316 317 318 317 317 318 318 317 318 316 316 317 319 322
308 308 311 309 307 308 311 313 315 317 320 326 324 323 321 319 318 315 316 317 315 317 318 316 315 315 315 315 314 314 314 314 315 316 316 317 314 316 317 314 314 315 317 319 320 323 325
308 308 308 308 307 306 307 310 312 314 316 322 324 324 321 318 319 315 316 317 318 318 315 316 316 315 316 316 315 315 315 315 315 315 317 316 316 315 314 316 315 316 319 324 330 329 326
309 308 305 306 306 306 306 307 309 312 314 315 322 324 321 319 318 315 318 320 319 318 317 315 315 315 317 316 316 315 316 317 316 317 318 318 318 316 315 317 319 317 319 322 330 329 327
308 308 307 306 305 305 306 305 306 309 313 315 317 321 319 320 318 315 320 319 316 317 317 316 315 316 317 316 316 316 316 317 317 316 316 317 317 313 312 314 316 318 318 319 322 323 323
307 306 307 307 306 306 306 306 305 307 311 315 318 316 319 319 317 315 320 318 317 316 315 316 316 317 319 317 316 317 317 317 317 316 316 317 317 313 311 311 313 315 317 318 318 328 331
308 308 308 307 306 306 305 306 306 305 310 316 316 318 316 317 317 317 315 316 316 315 314 315 316 317 318 318 317 317 318 317 317 317 316 316 316 315 312 313 316 314 316 317 320 324 331
308 308 308 307 306 306 306 305 306 305 309 314 315 320 311 315 322 319 320 313 314 316 316 316 315 317 317 317 318 318 318 317 315 316 315 316 317 317 317 314 314 315 316 318 321 326 323
307 307 307 307 306 305 304 306 305 306 308 313 316 316 308 308 320 322 318 318 314 316 316 316 316 317 317 317 318 318 318 316 314 315 316 316 316 317 317 316 313 313 316 317 318 322 329
306 306 307 307 306 305 306 305 305 305 306 311 314 318 309 308 312 314 323 318 316 315 316 316 316 316 316 316 317 318 317 316 314 314 312 316 317 317 319 321 319 315 315 315 317 321 320
305 305 306 306 306 306 305 305 303 304 305 308 312 316 312 314 312 314 316 319 318 316 317 316 316 316 316 316 316 317 317 316 314 316 313 316 316 317 318 317 316 318 318 316 316 318 319
304 304 305 305 305 305 305 305 305 304 304 307 311 313 312 312 312 316 317 321 321 317 316 319 317 316 315 316 316 317 317 317 318 315 314 315 317 317 317 317 316 316 316 317 316 316 317
303 304 304 304 304 304 304 304 304 304 304 306 306 308 312 314 314 316 316 319 320 318 317 317 319 318 318 316 315 316 317 317 318 318 316 317 316 317 318 317 317 318 318 317 318 316 317
302 303 304 304 304 303 304 304 303 304 304 306 306 308 311 312 314 316 316 316 317 317 320 318 317 318 318 317 316 315 315 316 316 316 317 317 318 319 319 319 320 318 317 318 318 318 318
301 302 303 303 303 303 303 303 303 303 303 304 305 306 307 309 312 313 315 316 317 317 318 318 317 317 317 318 318 317 317 315 316 315 316 317 318 326 322 321 320 319 317 318 319 320 319
300 301 302 302 302 302 302 302 303 303 303 303 305 305 306 306 306 308 310 312 317 318 318 317 314 312 312 315 316 318 318 315 315 314 316 317 318 320 323 324 322 321 317 320 317 320 319
300 301 301 302 302 302 302 302 301 302 302 303 304 305 305 306 305 307 311 312 312 316 316 317 316 315 312 316 320 318 319 316 316 316 315 316 319 321 322 324 320 318 317 318 319 322 321
300 301 301 301 301 301 301 301 301 302 301 303 303 304 304 306 305 304 306 308 308 310 315 315 317 317 313 316 319 320 321 321 317 316 317 317 320 322 321 323 323 318 316 319 320 323 320
300 301 301 301 301 301 301 301 301 301 301 302 303 303 304 305 305 304 304 304 306 306 309 310 316 315 315 316 317 319 322 321 321 319 317 318 317 320 319 319 319 319 319 318 320 321 322

GFSGBSN_925_thetae_336.txt.gz
Theta_e
325 326 325 325 324 324 324 323 323 323 323 322 321 319 316 311 308 311 313 313 314 314 314 313 313 313 313 320 319 317 315 315 315 318 319 320 321 322 321 319 321 322 323 321 321 319 318
328 326 327 327 326 326 326 325 325 323 323 323 322 322 320 316 310 308 311 314 313 313 314 313 313 313 319 318 317 317 315 316 317 317 319 318 319 320 320 318 319 320 319 318 317 317 317
332 328 328 328 328 328 327 328 328 327 325 323 322 322 321 319 315 310 307 313 314 313 313 313 313 313 317 316 316 316 316 317 316 317 319 317 316 319 320 319 319 318 317 317 318 318 319
329 330 329 330 330 330 329 329 329 328 328 327 324 321 321 320 319 314 309 309 314 313 313 313 313 316 317 316 316 315 317 317 317 316 316 316 317 319 319 319 318 318 318 322 320 319 318
323 326 328 328 330 330 330 330 331 330 329 329 327 323 321 320 320 317 309 309 314 313 313 313 315 318 316 314 315 315 316 317 317 317 317 316 317 320 319 320 322 320 322 322 321 318 319
320 322 322 325 326 326 328 330 330 329 327 325 327 326 322 320 320 317 307 313 313 313 316 316 317 317 316 316 315 315 316 316 317 317 318 319 319 320 319 320 322 320 320 318 319 317 316
316 317 320 321 322 324 326 326 325 325 324 324 324 326 325 320 320 310 315 319 319 318 317 317 317 315 315 315 314 315 316 316 317 317 317 321 319 321 321 318 317 316 316 316 318 316 316
310 312 314 317 319 321 321 324 325 325 324 324 324 324 324 321 319 316 319 319 317 317 320 319 319 317 315 314 315 315 315 316 317 317 317 318 319 319 318 318 318 318 318 317 318 316 315
312 311 310 312 314 316 319 320 321 324 324 324 324 324 324 323 319 318 318 317 316 318 321 318 318 318 316 314 315 316 315 316 316 317 317 317 319 318 318 318 319 319 319 317 316 317 315
309 308 308 310 310 312 314 316 318 319 324 324 324 323 323 323 319 317 319 317 317 317 321 319 319 318 317 316 316 315 315 317 316 316 317 317 317 317 317 318 319 320 316 316 317 318 320
309 308 307 309 308 308 309 312 314 316 318 321 324 324 323 323 318 317 318 317 317 317 318 318 316 314 316 315 315 314 313 316 316 317 317 318 318 317 318 318 318 319 316 317 317 317 318
309 307 307 308 307 306 306 308 310 312 315 316 322 324 324 323 320 317 315 317 317 319 318 317 316 315 315 316 315 314 314 315 316 317 317 316 315 316 317 315 315 316 316 318 319 320 324
308 308 308 308 307 306 305 305 307 309 311 314 315 324 323 321 322 320 316 318 320 318 316 317 316 316 315 316 316 315 315 314 315 315 316 316 316 315 315 316 315 315 317 323 329 327 327
309 309 307 306 307 307 305 305 305 307 309 312 314 316 324 322 321 319 316 321 323 318 317 316 316 316 316 317 316 315 316 315 315 315 316 318 318 315 314 316 318 316 317 321 328 331 328
308 307 307 306 305 306 306 306 306 305 308 310 314 317 321 321 321 319 318 321 316 317 317 317 316 316 317 317 316 316 315 315 316 315 317 316 318 313 314 314 315 318 317 318 321 321 322
308 308 307 307 307 306 306 306 305 305 306 311 316 316 318 320 321 318 318 319 316 316 316 317 317 317 319 318 316 317 317 317 316 316 315 316 317 314 311 311 312 314 315 317 317 323 331
306 308 308 307 307 307 306 305 306 305 305 311 314 317 318 320 320 320 318 315 316 317 315 315 317 318 318 319 317 317 318 318 317 317 315 316 315 314 311 312 314 313 314 316 318 322 328
307 306 308 307 306 306 306 305 305 306 305 309 314 317 314 316 320 321 323 320 313 315 316 316 316 317 318 318 318 317 319 318 315 316 316 315 316 315 315 314 313 314 313 315 320 323 321
305 307 307 307 307 306 306 306 304 305 305 310 314 315 310 312 324 324 323 324 322 319 314 316 317 317 316 317 318 318 318 315 316 316 316 315 315 316 317 315 313 313 314 314 315 317 324
304 306 306 306 306 306 306 305 305 305 305 307 313 316 310 309 311 316 323 325 323 320 319 315 316 316 316 316 316 318 319 316 314 315 313 315 316 316 317 321 317 314 314 314 314 316 317
303 304 305 306 305 305 305 305 304 305 304 306 310 313 314 316 314 315 317 321 324 323 319 317 315 316 316 316 316 316 317 317 315 316 313 315 316 315 315 316 317 317 317 314 315 315 317
303 303 304 305 305 304 305 305 304 304 304 305 308 311 312 313 313 315 317 320 320 321 319 319 319 318 316 316 316 316 316 316 317 315 313 314 315 315 315 315 315 316 315 315 315 315 315
302 303 303 304 304 304 304 304 304 304 304 305 305 306 307 309 313 315 316 317 319 319 319 319 318 318 319 318 316 314 314 314 315 316 314 315 315 315 316 315 316 317 316 315 315 315 314
302 302 302 303 303 303 303 303 303 304 304 304 304 305 308 309 308 311 312 314 316 317 319 319 320 319 316 316 317 317 316 316 314 314 315 316 316 317 319 317 319 317 317 316 316 315 315
301 302 302 302 302 303 303 303 303 303 303 303 304 305 306 307 308 309 310 311 312 312 315 317 317 317 317 315 316 319 320 317 316 314 314 315 317 323 320 318 317 317 317 316 317 317 316
301 301 301 301 301 302 302 302 302 302 302 303 303 304 305 305 305 304 306 306 310 311 313 315 315 315 316 315 316 319 322 319 318 316 314 314 314 316 320 321 320 318 317 316 316 317 317
300 300 300 301 301 301 302 302 302 302 301 302 303 303 304 304 304 304 306 308 308 310 311 312 315 315 316 318 319 320 320 319 320 318 314 314 315 316 317 320 319 318 316 317 317 320 320
300 300 300 300 301 302 302 302 301 301 301 301 302 303 303 304 304 304 304 305 305 307 309 309 309 315 317 320 319 319 321 318 318 318 316 315 315 316 316 317 318 317 316 316 317 320 320
300 300 300 301 301 301 301 301 301 301 301 301 302 302 302 303 304 303 304 304 304 305 307 309 309 309 310 316 317 317 320 320 319 319 317 316 315 316 316 316 315 314 315 315 315 316 317

GFSGBSN_925_thetae_339.txt.gz
Theta_e
327 325 326 325 325 325 325 325 325 324 323 323 322 322 321 319 317 313 308 311 313 313 313 313 313 313 312 317 318 316 315 314 316 317 318 317 317 317 318 316 319 319 321 320 319 318 317
330 330 326 327 327 327 327 327 327 327 327 327 325 322 322 321 319 317 314 308 312 313 313 313 313 312 319 317 317 316 315 316 316 316 317 316 315 315 316 316 316 317 318 317 316 316 315
329 331 329 328 329 329 329 328 328 328 327 327 327 326 323 321 320 318 315 307 309 313 312 313 313 313 317 313 316 316 316 316 315 316 317 316 316 315 316 317 317 316 315 314 314 315 315
324 327 328 329 330 330 330 330 329 329 330 329 326 325 325 323 321 319 314 306 308 313 312 313 313 313 315 315 316 316 316 317 316 316 316 315 316 316 317 316 316 316 315 316 317 315 316
321 322 322 324 326 327 328 329 329 330 329 327 324 325 325 325 321 318 308 309 310 313 313 313 314 315 314 314 314 314 315 317 317 316 316 316 316 317 316 315 317 316 316 316 319 315 316
317 319 320 321 321 323 325 326 326 325 325 324 324 323 324 324 322 314 316 318 314 314 315 315 317 313 313 314 315 315 315 316 316 316 315 317 314 315 314 313 317 314 315 313 317 314 314
310 312 314 318 319 320 321 322 325 325 324 324 324 324 323 323 322 316 318 319 316 316 317 315 314 312 314 314 314 314 315 316 315 315 313 316 314 314 316 314 315 315 314 313 314 315 314
311 311 310 311 313 316 318 319 320 322 323 324 324 324 323 322 322 317 318 317 316 316 318 318 317 315 316 314 314 313 315 314 314 313 313 313 315 314 316 316 316 316 316 314 315 314 313
309 309 307 307 309 310 312 314 317 319 321 323 323 324 323 322 321 317 317 316 317 317 317 319 317 316 314 314 313 313 313 313 314 314 313 312 315 316 317 316 317 316 316 315 314 314 312
308 309 306 307 307 307 308 310 312 315 316 318 321 322 323 322 320 317 317 317 317 316 317 316 318 317 314 314 314 314 314 314 314 313 312 312 314 316 316 316 316 316 314 315 316 314 314
308 308 306 308 306 306 305 305 308 310 312 315 317 321 323 323 321 318 315 315 317 316 313 316 315 314 313 314 313 313 313 313 314 314 314 313 315 315 316 315 316 316 314 315 315 314 315
308 308 308 307 306 306 305 305 305 307 309 311 314 316 322 322 321 320 320 315 317 314 314 315 314 313 314 314 314 313 312 313 314 315 314 312 314 315 314 314 314 314 314 314 316 315 320
309 309 307 307 306 306 305 305 305 305 306 309 311 314 317 321 321 321 318 316 315 316 315 315 315 314 313 314 314 313 312 312 311 312 311 313 313 313 314 314 313 314 312 316 325 322 317
307 308 307 306 306 306 306 305 305 305 305 307 309 312 314 318 321 322 318 316 320 317 314 315 315 314 314 314 313 312 312 311 310 311 311 313 314 312 312 312 314 312 311 317 324 328 323
308 308 307 307 306 305 306 306 305 305 305 305 309 314 316 316 320 320 312 318 315 316 315 315 315 314 314 315 314 312 310 311 312 310 312 313 314 311 311 310 313 315 313 313 318 317 319
307 307 307 307 307 306 305 306 304 305 305 305 310 312 313 315 320 319 313 319 315 314 314 315 314 313 314 314 314 313 312 312 313 311 310 313 314 312 310 311 311 314 312 313 312 314 324
305 307 306 306 307 307 306 306 305 304 305 304 310 312 314 318 320 319 318 314 314 314 314 314 315 315 315 315 312 313 314 314 313 314 310 312 312 312 310 309 310 310 312 313 311 316 321
304 305 306 306 305 306 306 306 305 304 305 308 310 312 313 316 321 321 323 318 314 314 313 314 314 315 315 316 314 313 313 316 314 314 313 311 310 310 311 310 308 308 310 311 314 314 316
304 304 305 306 305 305 305 306 305 304 305 306 307 309 311 315 322 319 319 322 320 320 320 313 315 315 315 314 315 314 315 314 314 314 313 312 311 312 311 312 311 311 310 311 311 313 316
303 303 303 305 305 305 304 304 305 304 305 306 304 308 311 307 311 314 318 321 321 322 321 321 317 315 314 314 313 315 315 315 313 314 314 313 310 310 313 315 312 312 311 310 311 311 312
303 303 304 304 304 304 304 304 305 304 304 305 303 304 309 313 314 312 316 318 320 323 321 318 316 320 316 315 314 314 313 315 313 315 312 311 312 312 311 312 313 313 313 311 312 313 312
302 303 303 304 304 304 304 304 304 304 304 304 303 304 303 306 310 312 313 314 316 318 319 322 322 319 314 314 314 314 314 312 314 312 311 309 312 312 313 312 312 313 313 313 312 312 313
301 302 302 303 303 303 303 303 303 304 303 304 303 304 303 305 306 308 310 313 314 316 317 317 319 319 319 317 314 312 312 312 311 312 310 310 311 311 313 312 312 313 314 314 313 313 313
300 301 301 302 302 303 302 302 302 302 303 303 303 304 303 305 305 305 306 306 308 309 312 313 312 316 318 314 315 316 313 313 314 314 310 311 310 311 313 314 316 314 313 313 314 314 314
300 300 301 301 302 302 302 302 302 301 302 303 303 303 303 305 304 306 306 308 305 306 309 311 310 310 311 315 318 319 318 316 316 316 311 311 311 312 315 314 315 315 314 315 314 313 313
300 300 300 301 301 301 301 301 301 301 301 302 302 303 303 304 304 302 303 303 304 305 304 305 307 309 310 314 319 321 321 319 318 315 316 309 312 315 313 316 317 316 314 314 313 315 313
299 300 300 301 301 301 301 301 302 301 301 301 301 301 302 303 303 302 303 303 304 305 307 306 309 308 309 316 319 320 319 316 319 317 313 315 311 315 316 318 316 314 314 314 315 316 317
300 300 300 300 301 301 301 301 302 301 301 301 301 301 302 301 302 302 302 303 302 303 304 305 305 306 309 315 317 319 320 318 317 317 316 312 311 315 314 314 317 314 313 316 313 312 318
300 300 300 300 301 301 301 301 302 302 301 300 301 301 301 301 302 302 302 302 303 303 303 303 305 306 307 307 308 310 317 318 317 318 315 319 314 311 312 315 312 312 311 312 312 312 313

GFSGBSN_925_thetae_342.txt.gz
Theta_e
329 329 326 326 326 327 327 327 327 327 326 326 326 326 325 323 321 319 317 313 308 311 312 312 313 312 312 315 316 317 315 315 316 316 317 316 316 315 317 316 316 318 320 320 320 317 317
329 330 329 327 327 327 328 329 328 327 327 327 326 325 324 324 324 321 318 313 308 309 312 312 312 312 318 314 316 316 315 316 316 316 316 314 314 314 315 315 315 316 317 316 316 315 314
326 328 329 329 329 330 330 330 330 328 327 330 327 325 324 325 324 322 316 308 306 307 312 312 312 313 316 312 315 316 315 316 315 315 315 315 315 315 315 316 315 315 314 312 312 313 314
321 322 323 325 327 327 328 329 329 329 328 328 325 323 323 324 323 321 314 313 314 308 312 312 312 313 313 314 315 315 315 316 316 315 315 315 315 315 316 315 313 315 313 314 315 313 315
317 319 320 320 321 323 324 326 326 326 325 324 324 324 324 323 323 319 316 318 316 312 313 312 314 314 314 313 313 315 315 316 316 316 316 316 315 315 313 313 315 314 315 314 315 313 315
311 313 315 317 318 319 321 322 324 325 325 324 324 324 324 323 322 318 316 318 316 314 314 314 316 312 311 314 314 314 315 315 315 315 313 316 311 313 311 312 316 313 315 312 316 315 314
310 311 310 311 312 315 317 319 320 321 322 322 323 323 324 323 321 317 317 318 313 314 315 313 312 310 312 313 314 314 315 315 314 312 312 312 314 313 314 312 314 313 313 313 311 314 314
309 309 307 306 308 310 311 313 315 317 319 320 322 322 322 323 322 317 316 315 315 314 316 316 316 315 315 315 313 312 314 314 313 312 312 311 314 314 312 314 314 314 315 313 312 314 312
309 309 308 307 307 306 306 308 309 312 315 316 317 319 320 322 321 317 317 316 317 316 316 317 317 315 316 315 312 311 312 312 313 313 313 311 312 314 315 315 315 315 315 314 313 312 311
308 308 307 308 307 305 305 304 305 307 310 312 315 316 318 321 321 319 317 318 315 317 312 313 317 316 313 312 313 312 313 312 312 312 311 310 311 314 315 314 314 315 313 314 314 311 309
306 307 308 308 307 305 304 304 304 304 306 308 311 314 316 321 321 319 319 320 315 315 310 314 315 313 312 314 312 312 312 313 313 313 312 312 315 314 315 314 314 314 313 313 313 312 314
308 307 307 306 305 304 305 304 304 304 304 305 308 310 313 320 321 320 321 316 316 309 310 314 313 313 313 313 313 312 312 312 312 314 312 311 312 313 313 313 313 313 313 313 313 313 316
307 308 307 306 305 305 305 305 305 304 304 304 305 308 310 313 320 320 322 315 310 313 312 314 313 312 313 313 313 312 312 311 311 312 310 310 312 312 313 314 312 311 308 309 320 321 315
308 307 307 306 305 305 305 305 305 304 303 304 303 306 310 311 313 319 319 313 315 312 313 314 314 312 312 312 312 311 311 310 309 310 309 310 312 311 311 312 311 310 308 308 318 326 323
306 306 306 306 306 306 306 305 305 304 304 304 303 307 311 310 316 320 311 315 307 313 314 314 314 313 313 313 313 311 309 309 309 308 310 310 312 310 310 310 312 312 312 311 315 314 317
305 306 307 306 306 306 306 306 305 304 303 304 304 310 310 312 313 318 314 315 315 313 313 313 314 312 313 313 312 311 310 310 311 309 309 311 312 310 310 310 310 312 311 313 311 314 316
304 305 305 306 306 306 306 305 305 304 303 304 307 307 311 315 316 319 318 311 313 312 312 313 313 314 313 314 311 311 312 312 311 312 308 309 311 311 310 310 310 310 312 312 309 312 317
304 304 304 305 304 305 305 305 305 305 303 304 308 304 310 316 319 318 320 313 315 316 316 315 312 313 314 314 314 311 312 312 311 310 311 309 308 310 310 309 307 308 310 311 313 311 314
304 304 304 304 304 304 304 305 305 305 304 305 302 304 309 314 320 315 315 317 318 318 318 319 316 313 312 312 313 313 313 313 311 312 311 309 309 311 311 310 309 309 308 310 309 310 314
303 304 304 304 303 304 304 304 304 305 304 304 300 305 308 306 309 316 317 316 316 316 317 319 319 319 319 318 313 313 313 314 312 313 314 311 308 310 312 311 310 310 310 309 310 309 311
303 303 303 303 304 303 302 303 303 304 304 304 301 300 304 306 310 309 311 314 316 318 318 318 318 319 320 316 315 314 312 312 313 312 312 310 311 310 309 310 311 312 311 310 309 311 311
302 302 302 303 303 303 302 302 303 303 304 304 302 302 300 302 304 306 309 312 313 313 312 314 316 318 317 319 317 316 313 312 311 312 311 308 311 311 311 311 310 312 312 312 311 311 311
300 301 301 301 302 303 302 302 302 303 303 303 303 303 301 302 302 304 305 308 311 307 310 310 309 311 315 316 312 313 316 315 313 311 310 308 310 310 311 312 310 311 312 312 312 311 312
300 301 301 301 301 302 302 302 302 301 302 303 303 302 302 304 302 302 303 303 305 306 308 307 307 309 311 309 310 313 315 316 313 313 308 309 309 309 311 311 314 314 311 311 312 312 312
300 300 301 300 300 301 302 303 303 302 302 302 302 302 301 303 302 302 304 305 305 304 303 304 303 303 305 309 312 316 317 317 318 316 312 310 309 310 314 312 313 314 313 313 313 313 311
300 300 300 300 300 300 301 300 301 301 300 302 302 302 302 304 303 301 302 301 302 302 301 301 301 304 308 311 314 317 319 318 318 316 316 311 312 314 310 313 316 314 313 312 312 314 312
299 300 300 300 300 301 301 302 302 301 300 301 301 301 302 303 302 302 303 302 301 302 302 305 306 304 304 308 312 314 315 318 321 318 317 316 311 316 316 317 314 312 312 312 314 313 314
300 300 300 300 300 301 301 301 302 301 300 301 301 301 301 301 300 301 301 301 301 301 303 301 302 302 303 305 308 313 317 316 318 317 317 317 314 316 314 316 317 312 313 316 313 313 314
300 300 300 300 301 301 301 301 302 302 301 301 301 301 301 300 299 300 300 301 301 301 301 301 302 302 304 306 305 308 308 308 308 313 312 316 314 314 314 316 312 310 311 310 310 310 310

GFSGBSN_925_thetae_348.txt.gz
Theta_e
328 329 330 328 328 328 328 329 328 328 328 327 327 327 324 323 323 322 321 319 315 313 312 308 310 312 312 311 311 316 315 314 315 315 315 314 313 313 315 313 312 318 317 318 319 319 317
325 326 326 326 326 328 328 327 326 326 326 326 325 324 324 324 324 323 321 318 314 313 314 311 310 312 315 310 312 315 315 315 315 314 315 313 312 312 313 314 313 313 313 313 312 316 313
322 323 323 322 322 323 324 325 325 326 326 325 324 324 323 322 323 323 321 316 314 313 314 310 311 312 314 309 312 314 315 315 315 314 313 314 313 312 314 314 312 312 313 310 310 312 313
315 317 318 319 319 319 320 320 321 322 323 323 321 321 321 320 321 322 319 315 314 314 313 310 312 313 310 311 313 313 315 314 315 315 314 314 313 313 313 312 311 312 309 310 310 311 312
313 313 313 313 313 314 315 316 317 318 319 319 319 319 319 319 319 321 316 315 315 313 312 312 312 311 311 313 313 314 314 314 315 314 314 314 313 311 311 311 310 310 314 313 312 310 313
311 309 307 307 308 309 310 310 311 312 314 314 315 317 318 318 317 318 316 314 315 315 314 314 316 310 310 312 312 313 313 314 313 312 310 312 308 311 308 308 314 314 311 311 310 311 312
310 309 308 307 308 306 305 305 306 307 308 309 311 312 314 316 315 318 315 315 313 312 313 313 311 309 308 313 311 312 313 313 312 309 310 309 312 312 312 311 312 312 311 310 309 309 312
307 307 308 307 308 306 304 304 303 303 303 305 307 309 310 312 314 318 316 313 315 313 314 313 313 313 314 314 313 311 313 312 312 311 310 308 311 312 311 311 313 311 312 310 308 309 310
306 307 308 308 308 306 304 303 303 303 303 302 303 305 308 310 317 320 316 319 320 314 313 313 314 314 313 314 313 311 311 310 311 311 310 309 310 311 313 313 313 312 312 311 311 308 307
309 307 306 308 307 305 304 304 304 304 303 302 302 302 305 309 320 320 315 319 319 314 308 309 315 315 311 312 314 310 311 311 311 311 309 309 309 311 312 313 310 312 310 311 311 309 308
309 309 309 306 305 305 304 304 304 303 303 302 302 302 302 308 316 317 318 317 317 310 308 313 315 312 310 311 310 311 310 311 311 311 310 309 312 313 313 312 311 311 311 311 311 310 312
307 308 308 307 306 305 304 304 304 304 303 302 302 301 302 305 308 316 314 317 313 305 309 314 312 312 312 312 311 310 311 310 309 311 309 309 308 311 311 310 311 310 311 307 311 309 308
306 307 306 306 306 306 306 305 304 304 303 303 301 301 302 306 309 308 314 309 306 308 309 313 313 312 312 312 313 311 311 311 310 311 308 306 308 310 311 312 310 308 307 307 305 314 308
306 306 306 306 305 306 306 305 305 304 304 303 301 302 303 308 312 316 316 306 310 308 310 310 311 310 313 311 312 311 309 309 308 306 307 308 309 310 310 311 310 310 308 306 308 313 317
305 305 305 305 306 304 305 305 305 304 303 302 302 303 308 311 311 317 305 307 307 307 311 312 311 312 311 311 311 310 309 308 307 306 310 308 309 309 309 309 309 309 309 306 309 309 312
305 305 304 305 305 302 303 305 304 304 303 302 303 305 309 309 313 314 309 311 310 311 312 311 312 311 312 311 311 310 309 308 310 306 307 308 309 308 309 308 307 310 307 310 308 310 308
304 305 305 305 304 303 302 304 304 304 303 302 303 301 307 312 315 309 313 312 312 310 315 316 312 312 311 312 310 309 310 309 309 308 307 306 308 309 309 309 309 309 310 308 307 306 308
304 304 304 304 304 302 302 303 303 303 303 302 300 298 303 311 309 308 311 314 314 316 314 316 314 311 312 315 314 309 309 309 308 307 309 308 306 308 308 307 306 307 308 308 310 310 309
303 303 303 304 303 303 302 302 303 303 304 304 299 298 303 309 313 309 311 313 312 314 316 316 318 317 316 319 319 316 311 310 309 310 310 308 307 310 309 308 307 308 306 308 306 306 308
301 302 302 303 303 302 302 301 301 303 304 303 298 299 299 304 306 310 312 312 315 311 314 313 316 315 316 318 315 317 314 313 311 309 316 308 306 308 310 310 308 309 307 306 308 308 310
301 301 301 302 303 302 301 301 301 302 303 303 297 298 301 300 307 305 305 309 309 310 310 309 313 311 313 317 316 315 313 312 313 313 309 305 309 308 307 307 308 309 309 307 307 308 309
302 302 302 301 302 302 301 301 301 301 302 304 299 299 298 299 300 303 303 305 306 309 309 310 311 307 308 313 314 313 308 312 314 311 313 311 310 306 310 309 309 309 309 308 306 308 307
301 301 302 302 302 301 301 300 300 301 301 303 301 301 300 300 300 301 300 303 305 302 304 308 306 305 306 307 307 304 304 306 307 309 313 316 309 308 312 307 312 315 312 310 310 308 309
301 301 301 301 301 301 301 301 301 300 301 301 301 300 300 301 300 300 301 302 301 301 301 303 304 304 304 301 301 304 304 306 308 309 311 316 317 314 320 314 321 314 308 310 310 309 309
300 300 301 301 301 301 300 300 301 301 300 301 301 301 301 302 300 301 301 301 301 301 303 304 303 302 301 301 306 304 304 306 308 308 310 313 316 318 320 319 316 316 314 314 312 313 309
300 300 300 301 301 300 299 299 299 300 299 300 301 301 301 302 302 300 300 300 300 300 300 301 300 300 299 304 306 306 306 307 307 308 309 310 314 317 317 319 320 313 309 309 310 312 310
299 300 299 300 300 301 301 301 301 301 300 300 300 300 300 301 300 301 300 301 299 299 299 299 300 303 302 303 305 304 303 304 304 306 305 306 312 317 318 320 317 309 307 311 317 313 306
299 299 299 300 300 301 301 301 301 300 300 300 300 300 300 298 298 300 300 300 300 299 300 298 299 298 299 302 302 301 303 303 305 303 305 306 307 306 309 316 318 305 308 311 305 303 304
299 299 299 299 300 300 300 299 300 301 301 300 300 299 300 299 298 299 299 299 300 300 298 297 299 299 300 299 299 302 305 302 303 304 302 305 307 310 311 311 306 304 303 304 302 303 303